Hourly Data Report for October 20, 2016

All times are specified in Local Standard Time (LST). Add 1 hour to adjust for Daylight Saving Time where and when it is observed.

KAMLOOPS A
BRITISH COLUMBIA

50°42'09.000" N
120°26'55.000" W
345.30 m
1163781
71887
YKA

Download Data

Hourly Data (October 2016)
Hourly Data Report for October 20, 2016
Temp Definition
°C
Dew Point Temp Definition
°C
Rel Hum Definition
%
Wind Dir Definition
10's deg

Wind Spd Definition
km/h
Visibility Definition
km
Stn Press Definition
kPa
Hmdx Definition


Wind Chill Definition


Weather Definition


TIME
00:00 Legend Double Dagger 9.0 5.8 80 8 13 64.4 97.70     LegendNANA
01:00 Legend Double Dagger 8.9 5.5 79 9 22 64.4 97.61     Mostly Cloudy
02:00 Legend Double Dagger 9.0 5.6 79 10 22 64.4 97.58     LegendNANA
03:00 Legend Double Dagger 8.7 5.5 80 11 14 64.4 97.44     LegendNANA
04:00 Legend Double Dagger 9.1 5.1 76 10 21 64.4 97.40     Cloudy
05:00 Legend Double Dagger 8.9 5.3 78 11 21 64.4 97.34     LegendNANA
06:00 Legend Double Dagger 9.1 5.3 77 11 30 64.4 97.24     LegendNANA
07:00 Legend Double Dagger 9.2 5.2 76 10 26 64.4 97.24     Mostly Cloudy
08:00 Legend Double Dagger 9.1 5.7 79 10 22 64.4 97.20     LegendNANA
09:00 Legend Double Dagger 11.1 5.9 70 10 28 64.4 97.18     LegendNANA
10:00 Legend Double Dagger 12.2 6.3 67 10 28 64.4 97.13     Mainly Clear
11:00 Legend Double Dagger 14.1 6.3 59 10 30 64.4 97.05     LegendNANA
12:00 Legend Double Dagger 13.9 5.8 58 9 29 64.4 96.99     LegendNANA
13:00 Legend Double Dagger 16.5 6.7 52 10 19 64.4 96.93     Mainly Clear
14:00 Legend Double Dagger 17.5 4.9 43 12 21 64.4 96.87     LegendNANA
15:00 Legend Double Dagger 18.0 2.8 36 20 26 64.4 96.84     LegendNANA
16:00 Legend Double Dagger 16.6 3.1 40 19 34 64.4 96.86     Mainly Clear
17:00 Legend Double Dagger 15.6 1.4 38 22 32 64.4 96.96     LegendNANA
18:00 Legend Double Dagger 14.7 1.3 40 21 22 64.4 97.04     LegendNANA
19:00 Legend Double Dagger 12.8 1.5 46 23 16 64.4 97.20     Mainly Clear
20:00 Legend Double Dagger 13.1 0.9 43 25 20 64.4 97.29     LegendNANA
21:00 Legend Double Dagger 10.8 1.7 53 12 9 64.4 97.40     LegendNANA
22:00 Legend Double Dagger 7.3 2.0 69 36 3 64.4 97.46     Mainly Clear
23:00 Legend Double Dagger 5.7 1.4 74 26 4 64.4 97.52     LegendNANA

Notes on Data Quality.

Legend

  • E = Estimated
  • M = Missing
  • NA = Not Available
  • ‡ = Partner data that is not subject to review by the National Climate Archives
Date modified: